Météo par heure à Banka

Ce jour, 1 Octobre, Jeudi

Heure Température Précipitation Vent Pression Humidité
00:00 +21°C° 0 mm 5 m/s 763 mmHg 54%
01:00 +21°C° 0 mm 4 m/s 763 mmHg 52%
02:00 +21°C° 0 mm 3 m/s 763 mmHg 49%
03:00 +21°C° 0 mm 3 m/s 763 mmHg 46%
04:00 +21°C° 0 mm 3 m/s 763 mmHg 45%
05:00 +21°C° 0 mm 3 m/s 764 mmHg 44%
06:00 +21°C° 0 mm 2 m/s 764 mmHg 43%
07:00 +21°C° 0 mm 2 m/s 764 mmHg 43%
08:00 +22°C° 0 mm 3 m/s 764 mmHg 42%
09:00 +22°C° 0 mm 3 m/s 764 mmHg 41%
10:00 +24°C° 0 mm 3 m/s 764 mmHg 41%
11:00 +24°C° 0 mm 3 m/s 764 mmHg 40%
12:00 +25°C° 0 mm 4 m/s 764 mmHg 39%
13:00 +25°C° 0 mm 4 m/s 764 mmHg 40%
14:00 +25°C° 0 mm 4 m/s 763 mmHg 41%
15:00 +25°C° 0 mm 5 m/s 763 mmHg 42%
16:00 +23°C° 0 mm 5 m/s 763 mmHg 44%
17:00 +22°C° 0 mm 4 m/s 763 mmHg 47%
18:00 +22°C° 0 mm 4 m/s 763 mmHg 49%
19:00 +22°C° 0 mm 4 m/s 763 mmHg 50%
20:00 +22°C° 0 mm 4 m/s 764 mmHg 51%
21:00 +21°C° 0 mm 4 m/s 764 mmHg 52%
22:00 +21°C° 0 mm 4 m/s 764 mmHg 54%
23:00 +21°C° 0 mm 4 m/s 763 mmHg 56%

Demain, 2 Octobre, Vendredi

Heure Température Précipitation Vent Pression Humidité
00:00 +21°C° 0 mm 4 m/s 763 mmHg 58%
01:00 +21°C° 0 mm 4 m/s 763 mmHg 59%
02:00 +21°C° 0 mm 4 m/s 763 mmHg 59%
03:00 +21°C° 0 mm 4 m/s 763 mmHg 60%
04:00 +21°C° 0 mm 4 m/s 763 mmHg 59%
05:00 +21°C° 0 mm 4 m/s 764 mmHg 59%
06:00 +21°C° 0 mm 4 m/s 764 mmHg 59%
07:00 +22°C° 0 mm 4 m/s 764 mmHg 55%
08:00 +23°C° 0 mm 4 m/s 764 mmHg 51%
09:00 +25°C° 0 mm 4 m/s 764 mmHg 48%
10:00 +25°C° 0 mm 4 m/s 764 mmHg 47%
11:00 +25°C° 0 mm 5 m/s 764 mmHg 45%
12:00 +26°C° 0 mm 5 m/s 763 mmHg 44%
13:00 +26°C° 0 mm 5 m/s 763 mmHg 44%
14:00 +26°C° 0 mm 5 m/s 763 mmHg 44%
15:00 +24°C° 0 mm 6 m/s 762 mmHg 44%
16:00 +25°C° 0 mm 5 m/s 762 mmHg 47%
17:00 +23°C° 0 mm 5 m/s 762 mmHg 50%
18:00 +22°C° 0 mm 5 m/s 762 mmHg 53%
19:00 +22°C° 0 mm 5 m/s 763 mmHg 53%
20:00 +22°C° 0 mm 5 m/s 763 mmHg 52%
21:00 +22°C° 0 mm 5 m/s 764 mmHg 52%
22:00 +22°C° 0 mm 4 m/s 763 mmHg 54%
23:00 +22°C° 0 mm 3 m/s 763 mmHg 55%

Après-demain, 3 Octobre, Samedi

Heure Température Précipitation Vent Pression Humidité
00:00 +22°C° 0 mm 3 m/s 763 mmHg 56%
01:00 +21°C° 0 mm 2 m/s 763 mmHg 58%
02:00 +21°C° 0 mm 2 m/s 763 mmHg 60%
03:00 +21°C° 0 mm 2 m/s 763 mmHg 61%
04:00 +20°C° 0 mm 2 m/s 764 mmHg 63%
05:00 +20°C° 0 mm 2 m/s 764 mmHg 64%
06:00 +21°C° 0 mm 1 m/s 764 mmHg 66%
07:00 +21°C° 0.1 mm 2 m/s 764 mmHg 58%
08:00 +24°C° 0.1 mm 2 m/s 765 mmHg 51%
09:00 +25°C° 0.1 mm 2 m/s 765 mmHg 43%
10:00 +26°C° 0 mm 3 m/s 765 mmHg 41%
11:00 +26°C° 0 mm 3 m/s 765 mmHg 39%
12:00 +27°C° 0 mm 4 m/s 765 mmHg 37%
13:00 +26°C° 0 mm 4 m/s 765 mmHg 39%
14:00 +26°C° 0 mm 5 m/s 765 mmHg 40%
15:00 +26°C° 0 mm 5 m/s 765 mmHg 42%
16:00 +25°C° 0 mm 5 m/s 765 mmHg 45%
17:00 +23°C° 0 mm 5 m/s 765 mmHg 49%
18:00 +23°C° 0 mm 5 m/s 766 mmHg 52%
19:00 +22°C° 0 mm 4 m/s 766 mmHg 51%
20:00 +22°C° 0 mm 4 m/s 766 mmHg 50%
21:00 +22°C° 0 mm 3 m/s 767 mmHg 49%
22:00 +21°C° 0 mm 3 m/s 767 mmHg 49%
23:00 +21°C° 0 mm 3 m/s 767 mmHg 48%

4 Octobre, Dimanche

Heure Température Précipitation Vent Pression Humidité
00:00 +21°C° 0 mm 2 m/s 767 mmHg 48%
01:00 +21°C° 0 mm 2 m/s 766 mmHg 49%
02:00 +20°C° 0 mm 3 m/s 766 mmHg 50%
03:00 +20°C° 0 mm 3 m/s 766 mmHg 50%
04:00 +20°C° 0 mm 2 m/s 766 mmHg 51%
05:00 +20°C° 0 mm 2 m/s 766 mmHg 52%
06:00 +20°C° 0 mm 2 m/s 767 mmHg 52%
07:00 +21°C° 0 mm 2 m/s 767 mmHg 48%
08:00 +23°C° 0 mm 2 m/s 767 mmHg 44%
09:00 +25°C° 0 mm 2 m/s 767 mmHg 40%
10:00 +25°C° 0 mm 3 m/s 766 mmHg 40%
11:00 +26°C° 0 mm 3 m/s 766 mmHg 39%
12:00 +26°C° 0 mm 4 m/s 766 mmHg 38%
13:00 +26°C° 0 mm 4 m/s 766 mmHg 38%
14:00 +26°C° 0 mm 4 m/s 765 mmHg 39%
15:00 +26°C° 0 mm 4 m/s 765 mmHg 39%
16:00 +25°C° 0 mm 3 m/s 765 mmHg 42%
17:00 +24°C° 0 mm 3 m/s 765 mmHg 45%
18:00 +24°C° 0 mm 3 m/s 765 mmHg 48%
19:00 +23°C° 0 mm 2 m/s 765 mmHg 50%
20:00 +23°C° 0 mm 2 m/s 765 mmHg 52%
21:00 +21°C° 0 mm 2 m/s 765 mmHg 54%
22:00 +22°C° 0 mm 1 m/s 765 mmHg 55%
23:00 +22°C° 0 mm 1 m/s 765 mmHg 55%

5 Octobre, Lundi

Heure Température Précipitation Vent Pression Humidité
00:00 +21°C° 0 mm 1 m/s 765 mmHg 56%
01:00 +20°C° 0 mm 2 m/s 764 mmHg 56%
02:00 +20°C° 0 mm 2 m/s 764 mmHg 55%
03:00 +20°C° 0 mm 3 m/s 764 mmHg 55%
04:00 +20°C° 0 mm 3 m/s 764 mmHg 56%
05:00 +20°C° 0 mm 3 m/s 764 mmHg 56%
06:00 +20°C° 0 mm 2 m/s 764 mmHg 57%
07:00 +21°C° 0.1 mm 2 m/s 765 mmHg 54%
08:00 +23°C° 0.1 mm 2 m/s 765 mmHg 50%
09:00 +24°C° 0.1 mm 2 m/s 765 mmHg 46%
10:00 +24°C° 0.1 mm 2 m/s 765 mmHg 46%
11:00 +25°C° 0.1 mm 3 m/s 764 mmHg 45%
12:00 +25°C° 0.1 mm 3 m/s 764 mmHg 45%
13:00 +25°C° 0.1 mm 4 m/s 764 mmHg 47%
14:00 +25°C° 0.1 mm 5 m/s 764 mmHg 49%
15:00 +23°C° 0.1 mm 6 m/s 764 mmHg 52%
16:00 +23°C° 0 mm 6 m/s 764 mmHg 52%
17:00 +23°C° 0 mm 6 m/s 765 mmHg 52%
18:00 +22°C° 0 mm 6 m/s 765 mmHg 53%
19:00 +22°C° 0 mm 6 m/s 765 mmHg 51%
20:00 +22°C° 0 mm 6 m/s 765 mmHg 49%
21:00 +22°C° 0 mm 6 m/s 766 mmHg 48%
22:00 +22°C° 0 mm 6 m/s 766 mmHg 48%
23:00 +22°C° 0 mm 6 m/s 766 mmHg 49%

6 Octobre, Mardi

Heure Température Précipitation Vent Pression Humidité
00:00 +22°C° 0 mm 6 m/s 766 mmHg 49%
01:00 +21°C° 0 mm 6 m/s 766 mmHg 52%
02:00 +21°C° 0 mm 6 m/s 765 mmHg 55%
03:00 +21°C° 0 mm 7 m/s 765 mmHg 58%
04:00 +21°C° 0.1 mm 6 m/s 766 mmHg 58%
05:00 +21°C° 0.1 mm 5 m/s 766 mmHg 58%
06:00 +21°C° 0.1 mm 3 m/s 766 mmHg 58%
07:00 +21°C° 0.3 mm 3 m/s 766 mmHg 59%
08:00 +21°C° 0.3 mm 3 m/s 766 mmHg 60%
09:00 +21°C° 0.3 mm 2 m/s 767 mmHg 61%
10:00 +21°C° 0.1 mm 3 m/s 767 mmHg 60%
11:00 +21°C° 0.1 mm 4 m/s 767 mmHg 60%
12:00 +21°C° 0.1 mm 4 m/s 767 mmHg 60%
13:00 +21°C° 0.2 mm 5 m/s 767 mmHg 58%
14:00 +21°C° 0.2 mm 6 m/s 766 mmHg 56%
15:00 +21°C° 0.2 mm 6 m/s 766 mmHg 54%
16:00 +21°C° 0 mm 6 m/s 766 mmHg 53%
17:00 +21°C° 0 mm 6 m/s 766 mmHg 52%
18:00 +21°C° 0 mm 5 m/s 766 mmHg 51%
19:00 +21°C° 0 mm 5 m/s 766 mmHg 51%
20:00 +21°C° 0 mm 5 m/s 766 mmHg 51%
21:00 +21°C° 0 mm 5 m/s 767 mmHg 51%
22:00 +20°C° 0.2 mm 5 m/s 767 mmHg 55%
23:00 +19°C° 0.2 mm 4 m/s 766 mmHg 60%
Voir plus

We Need Your Consent

Meteoprog and our Service Providers may store and access personal data such as cookies, device identifiers or other similar technologies on your device and process such data to personalise content and ads, as well as provide social media features and to analyse the traffic.

  • Store and/or access information on your device

    Cookies, device identifiers or other information can be stored or accessed on your device for the purposes indicated above.

  • Personalised ads and content, ad and content measurement, audience insights, and products development

    Ads and content can be personalised based on a profile. More data can be added to better personalise ads and content. Ad and content performance can be measured. Insights about the audience who saw the ads and content can be derived. Such data can be used to develop or improve user’s experience, systems and software.

By clicking ‘I Agree’ you will allow the use of indicated cookies, device identifiers, web beacons or other similar technologies. Your settings can be changed in the browser on your device.

For certain purposes, legitimate interests may be relied on, rather than consent. You can read more about this in our Privacy and Cookie Policy.